Time,TemperatureF,DewpointF,PressureIn,WindDirection,WindDirectionDegrees,WindSpeedMPH,WindSpeedGustMPH,Humidity,HourlyPrecipIn,Conditions,Clouds,dailyrainin,SoftwareType,DateUTC
2013-01-17 00:05:00,68.0,59.0,-100.00,SW,220,14.0,21.0,74,-99.99,,,-99.99,,2013-01-17 05:05:00,
2013-01-17 00:12:00,68.0,59.0,-100.00,SW,230,12.0,18.0,74,-99.99,,,-99.99,,2013-01-17 05:12:00,
2013-01-17 00:22:00,68.0,59.0,-100.00,SW,220,11.0,19.0,74,-99.99,,,-99.99,,2013-01-17 05:22:00,
2013-01-17 00:33:00,68.0,59.0,-100.00,SW,220,11.0,19.0,74,-99.99,,,-99.99,,2013-01-17 05:33:00,
2013-01-17 00:42:00,67.0,60.0,-100.00,SW,225,13.0,22.0,76,-99.99,,,-99.99,,2013-01-17 05:42:00,
2013-01-17 00:52:00,67.0,60.0,-100.00,SW,230,11.0,19.0,77,-99.99,,,-99.99,,2013-01-17 05:52:00,
2013-01-17 01:03:00,67.0,60.0,-100.00,SSW,210,9.0,21.0,78,-99.99,,,-99.99,,2013-01-17 06:03:00,
2013-01-17 01:12:00,67.0,60.0,-100.00,SW,220,9.0,19.0,77,-99.99,,,-99.99,,2013-01-17 06:12:00,
2013-01-17 01:22:00,67.0,60.0,-100.00,SW,220,17.0,26.0,78,-99.99,,,-99.99,,2013-01-17 06:22:00,
2013-01-17 01:33:00,67.0,60.0,-100.00,SW,235,14.0,25.0,78,-99.99,,,-99.99,,2013-01-17 06:33:00,
2013-01-17 01:42:00,67.0,60.0,-100.00,WSW,240,15.0,24.0,78,-99.99,,,-99.99,,2013-01-17 06:42:00,
2013-01-17 01:52:00,67.0,60.0,-100.00,SW,220,15.0,22.0,78,-99.99,,,-99.99,,2013-01-17 06:52:00,
2013-01-17 02:02:00,67.0,61.0,-100.00,SW,235,11.0,21.0,80,-99.99,,,-99.99,,2013-01-17 07:02:00,
2013-01-17 02:12:00,67.0,61.0,-100.00,SW,235,4.0,19.0,80,-99.99,,,-99.99,,2013-01-17 07:12:00,
2013-01-17 02:22:00,67.0,61.0,-100.00,WSW,240,6.0,17.0,80,-99.99,,,-99.99,,2013-01-17 07:22:00,
2013-01-17 02:33:00,67.0,61.0,-100.00,SW,235,6.0,18.0,80,-99.99,,,-99.99,,2013-01-17 07:33:00,
2013-01-17 02:42:00,67.0,61.0,-100.00,WSW,240,6.0,18.0,81,-99.99,,,-99.99,,2013-01-17 07:42:00,
2013-01-17 02:52:00,66.0,61.0,-100.00,WSW,240,4.0,15.0,82,-99.99,,,-99.99,,2013-01-17 07:52:00,
2013-01-17 03:02:00,66.0,61.0,-100.00,SW,230,4.0,14.0,82,-99.99,,,-99.99,,2013-01-17 08:02:00,
2013-01-17 03:12:00,66.0,61.0,-100.00,WSW,240,2.0,11.0,83,-99.99,,,-99.99,,2013-01-17 08:12:00,
2013-01-17 03:22:00,66.0,61.0,-100.00,SW,235,3.0,10.0,84,-99.99,,,-99.99,,2013-01-17 08:22:00,
2013-01-17 03:32:00,65.0,60.0,-100.00,SW,230,2.0,6.0,85,-99.99,,,-99.99,,2013-01-17 08:32:00,
2013-01-17 03:43:00,65.0,60.0,-100.00,SW,220,4.0,7.0,86,-99.99,,,-99.99,,2013-01-17 08:43:00,
2013-01-17 03:52:00,64.0,60.0,-100.00,SW,230,3.0,6.0,88,-99.99,,,-99.99,,2013-01-17 08:52:00,
2013-01-17 04:03:00,64.0,60.0,-100.00,SSW,205,1.0,6.0,89,-99.99,,,-99.99,,2013-01-17 09:03:00,
2013-01-17 04:12:00,63.0,60.0,-100.00,SW,220,2.0,7.0,89,-99.99,,,-99.99,,2013-01-17 09:12:00,
2013-01-17 04:22:00,63.0,60.0,-100.00,SSW,210,1.0,7.0,89,-99.99,,,-99.99,,2013-01-17 09:22:00,
2013-01-17 04:33:00,63.0,59.0,-100.00,SW,220,2.0,9.0,89,-99.99,,,-99.99,,2013-01-17 09:33:00,
2013-01-17 04:42:00,63.0,59.0,-100.00,SW,215,2.0,14.0,89,-99.99,,,-99.99,,2013-01-17 09:42:00,
2013-01-17 04:52:00,63.0,59.0,-100.00,SSW,205,3.0,11.0,88,-99.99,,,-99.99,,2013-01-17 09:52:00,
2013-01-17 05:02:00,63.0,59.0,-100.00,South,190,4.0,14.0,88,-99.99,,,-99.99,,2013-01-17 10:02:00,
2013-01-17 05:12:00,63.0,59.0,-100.00,SW,225,4.0,14.0,88,-99.99,,,-99.99,,2013-01-17 10:12:00,
2013-01-17 05:22:00,63.0,59.0,-100.00,SSW,210,4.0,15.0,87,-99.99,,,-99.99,,2013-01-17 10:22:00,
2013-01-17 05:32:00,63.0,59.0,-100.00,SW,225,4.0,15.0,87,-99.99,,,-99.99,,2013-01-17 10:32:00,
2013-01-17 05:42:00,63.0,59.0,-100.00,WSW,240,2.0,10.0,86,-99.99,,,-99.99,,2013-01-17 10:42:00,
2013-01-17 05:52:00,63.0,59.0,-100.00,SW,215,2.0,7.0,86,-99.99,,,-99.99,,2013-01-17 10:52:00,
2013-01-17 06:03:00,63.0,59.0,-100.00,SSW,205,2.0,10.0,87,-99.99,,,-99.99,,2013-01-17 11:03:00,
2013-01-17 06:12:00,63.0,59.0,-100.00,SW,215,2.0,7.0,87,-99.99,,,-99.99,,2013-01-17 11:12:00,
2013-01-17 06:22:00,63.0,59.0,-100.00,SSW,210,2.0,6.0,87,-99.99,,,-99.99,,2013-01-17 11:22:00,
2013-01-17 06:33:00,63.0,59.0,-100.00,SSW,205,2.0,7.0,87,-99.99,,,-99.99,,2013-01-17 11:33:00,
2013-01-17 06:43:00,63.0,59.0,-100.00,SSW,210,4.0,6.0,88,-99.99,,,-99.99,,2013-01-17 11:43:00,
2013-01-17 06:52:00,63.0,59.0,-100.00,SW,235,4.0,6.0,88,-99.99,,,-99.99,,2013-01-17 11:52:00,
2013-01-17 07:03:00,63.0,59.0,-100.00,SW,225,3.0,6.0,89,-99.99,,,-99.99,,2013-01-17 12:03:00,
2013-01-17 07:12:00,63.0,60.0,-100.00,SW,225,2.0,6.0,89,-99.99,,,-99.99,,2013-01-17 12:12:00,
2013-01-17 07:23:00,63.0,60.0,-100.00,SW,225,1.0,5.0,89,-99.99,,,-99.99,,2013-01-17 12:23:00,
2013-01-17 07:33:00,63.0,60.0,-100.00,SW,230,2.0,6.0,89,-99.99,,,-99.99,,2013-01-17 12:33:00,
2013-01-17 07:43:00,63.0,60.0,-100.00,SSW,210,2.0,6.0,89,-99.99,,,-99.99,,2013-01-17 12:43:00,
2013-01-17 07:52:00,63.0,60.0,-100.00,SW,225,4.0,6.0,89,-99.99,,,-99.99,,2013-01-17 12:52:00,
2013-01-17 08:03:00,64.0,60.0,-100.00,SSW,210,3.0,6.0,88,-99.99,,,-99.99,,2013-01-17 13:03:00,
2013-01-17 08:12:00,64.0,60.0,-100.00,SSE,160,2.0,6.0,88,-99.99,,,-99.99,,2013-01-17 13:12:00,
2013-01-17 08:23:00,64.0,60.0,-100.00,SSW,200,2.0,6.0,87,-99.99,,,-99.99,,2013-01-17 13:23:00,
2013-01-17 08:33:00,65.0,60.0,-100.00,SSW,210,3.0,6.0,85,-99.99,,,-99.99,,2013-01-17 13:33:00,
2013-01-17 08:43:00,65.0,60.0,-100.00,SSW,205,2.0,8.0,85,-99.99,,,-99.99,,2013-01-17 13:43:00,
2013-01-17 08:53:00,65.0,60.0,-100.00,South,190,2.0,11.0,85,-99.99,,,-99.99,,2013-01-17 13:53:00,
2013-01-17 09:03:00,65.0,60.0,-100.00,SSW,205,3.0,8.0,84,-99.99,,,-99.99,,2013-01-17 14:03:00,
2013-01-17 09:13:00,66.0,60.0,-100.00,SSW,195,2.0,7.0,82,-99.99,,,-99.99,,2013-01-17 14:13:00,
2013-01-17 09:23:00,67.0,59.0,-100.00,SSW,195,3.0,9.0,77,-99.99,,,-99.99,,2013-01-17 14:23:00,
2013-01-17 09:33:00,67.0,59.0,-100.00,South,190,3.0,9.0,74,-99.99,,,-99.99,,2013-01-17 14:33:00,
2013-01-17 09:43:00,68.0,58.0,-100.00,SSW,195,3.0,7.0,72,-99.99,,,-99.99,,2013-01-17 14:43:00,
2013-01-17 09:53:00,68.0,58.0,-100.00,South,170,4.0,11.0,71,-99.99,,,-99.99,,2013-01-17 14:53:00,
2013-01-17 10:03:00,68.0,58.0,-100.00,South,175,4.0,14.0,69,-99.99,,,-99.99,,2013-01-17 15:03:00,
2013-01-17 10:13:00,69.0,57.0,-100.00,South,180,4.0,14.0,66,-99.99,,,-99.99,,2013-01-17 15:13:00,
2013-01-17 10:23:00,70.0,57.0,-100.00,South,175,3.0,13.0,64,-99.99,,,-99.99,,2013-01-17 15:23:00,
2013-01-17 10:33:00,70.0,56.0,-100.00,South,185,2.0,15.0,62,-99.99,,,-99.99,,2013-01-17 15:33:00,
2013-01-17 10:43:00,71.0,56.0,-100.00,South,185,1.0,11.0,61,-99.99,,,-99.99,,2013-01-17 15:43:00,
2013-01-17 10:53:00,71.0,56.0,-100.00,South,190,1.0,12.0,60,-99.99,,,-99.99,,2013-01-17 15:53:00,
2013-01-17 11:03:00,71.0,55.0,-100.00,South,170,1.0,15.0,58,-99.99,,,-99.99,,2013-01-17 16:03:00,
2013-01-17 11:12:00,71.0,55.0,-100.00,South,190,1.0,11.0,57,-99.99,,,-99.99,,2013-01-17 16:12:00,
2013-01-17 11:23:00,71.0,55.0,-100.00,South,175,2.0,14.0,57,-99.99,,,-99.99,,2013-01-17 16:23:00,
2013-01-17 11:33:00,72.0,55.0,-100.00,South,175,6.0,14.0,55,-99.99,,,-99.99,,2013-01-17 16:33:00,
2013-01-17 11:43:00,71.0,55.0,-100.00,South,175,9.0,16.0,56,-99.99,,,-99.99,,2013-01-17 16:43:00,
2013-01-17 11:53:00,71.0,55.0,-100.00,South,175,6.0,16.0,56,-99.99,,,-99.99,,2013-01-17 16:53:00,
2013-01-17 12:03:00,71.0,55.0,-100.00,South,180,8.0,16.0,56,-99.99,,,-99.99,,2013-01-17 17:03:00,
2013-01-17 12:13:00,71.0,55.0,-100.00,South,175,8.0,16.0,57,-99.99,,,-99.99,,2013-01-17 17:13:00,
2013-01-17 12:23:00,71.0,56.0,-100.00,South,180,12.0,17.0,60,-99.99,,,-99.99,,2013-01-17 17:23:00,
2013-01-17 12:33:00,71.0,57.0,-100.00,South,170,8.0,17.0,61,-99.99,,,-99.99,,2013-01-17 17:33:00,
2013-01-17 12:43:00,71.0,57.0,-100.00,South,180,14.0,21.0,61,-99.99,,,-99.99,,2013-01-17 17:43:00,
2013-01-17 12:53:00,71.0,57.0,-100.00,South,180,14.0,21.0,62,-99.99,,,-99.99,,2013-01-17 17:53:00,
2013-01-17 13:04:00,71.0,58.0,-100.00,South,180,13.0,21.0,63,-99.99,,,-99.99,,2013-01-17 18:04:00,
2013-01-17 13:13:00,71.0,59.0,-100.00,South,170,15.0,25.0,66,-99.99,,,-99.99,,2013-01-17 18:13:00,
2013-01-17 13:23:00,71.0,58.0,-100.00,South,180,14.0,23.0,64,-99.99,,,-99.99,,2013-01-17 18:23:00,
2013-01-17 13:34:00,71.0,59.0,-100.00,South,190,15.0,24.0,65,-99.99,,,-99.99,,2013-01-17 18:34:00,
2013-01-17 13:44:00,71.0,58.0,-100.00,South,190,19.0,27.0,64,-99.99,,,-99.99,,2013-01-17 18:44:00,
2013-01-17 13:53:00,71.0,58.0,-100.00,South,175,16.0,28.0,63,-99.99,,,-99.99,,2013-01-17 18:53:00,
2013-01-17 14:03:00,71.0,58.0,-100.00,South,190,14.0,25.0,63,-99.99,,,-99.99,,2013-01-17 19:03:00,
2013-01-17 14:13:00,71.0,57.0,-100.00,South,190,15.0,26.0,62,-99.99,,,-99.99,,2013-01-17 19:13:00,
2013-01-17 14:23:00,71.0,57.0,-100.00,South,190,13.0,25.0,62,-99.99,,,-99.99,,2013-01-17 19:23:00,
2013-01-17 14:33:00,71.0,57.0,-100.00,South,180,15.0,26.0,63,-99.99,,,-99.99,,2013-01-17 19:33:00,
2013-01-17 14:43:00,71.0,57.0,-100.00,South,190,19.0,26.0,62,-99.99,,,-99.99,,2013-01-17 19:43:00,
2013-01-17 14:53:00,71.0,57.0,-100.00,South,180,18.0,24.0,62,-99.99,,,-99.99,,2013-01-17 19:53:00,
2013-01-17 15:03:00,71.0,57.0,-100.00,South,185,19.0,31.0,62,-99.99,,,-99.99,,2013-01-17 20:03:00,
2013-01-17 15:13:00,71.0,58.0,-100.00,South,185,17.0,31.0,63,-99.99,,,-99.99,,2013-01-17 20:13:00,
2013-01-17 15:23:00,71.0,59.0,-100.00,South,185,21.0,31.0,65,-99.99,,,-99.99,,2013-01-17 20:23:00,
2013-01-17 15:33:00,71.0,59.0,-100.00,South,190,19.0,28.0,66,-99.99,,,-99.99,,2013-01-17 20:33:00,
2013-01-17 15:43:00,71.0,60.0,-100.00,South,185,20.0,31.0,68,-99.99,,,-99.99,,2013-01-17 20:43:00,
2013-01-17 15:53:00,70.0,59.0,-100.00,South,190,19.0,35.0,69,-99.99,,,-99.99,,2013-01-17 20:53:00,
2013-01-17 16:03:00,70.0,60.0,-100.00,SSW,195,16.0,33.0,70,-99.99,,,-99.99,,2013-01-17 21:03:00,
2013-01-17 16:13:00,70.0,60.0,-100.00,SSW,195,19.0,33.0,71,-99.99,,,-99.99,,2013-01-17 21:13:00,
2013-01-17 16:23:00,69.0,60.0,-100.00,South,190,20.0,32.0,72,-99.99,,,-99.99,,2013-01-17 21:23:00,
2013-01-17 16:34:00,69.0,61.0,-100.00,South,190,18.0,30.0,74,-99.99,,,-99.99,,2013-01-17 21:34:00,
2013-01-17 16:43:00,69.0,61.0,-100.00,South,190,21.0,32.0,76,-99.99,,,-99.99,,2013-01-17 21:43:00,
2013-01-17 16:53:00,68.0,61.0,-100.00,SW,225,20.0,34.0,78,-99.99,,,-99.99,,2013-01-17 21:53:00,
2013-01-17 17:04:00,65.0,61.0,-100.00,SW,225,29.0,41.0,86,-99.99,,,-99.99,,2013-01-17 22:04:00,
2013-01-17 17:12:00,64.0,61.0,-100.00,SW,235,24.0,44.0,90,-99.99,,,-99.99,,2013-01-17 22:12:00,
2013-01-17 17:23:00,61.0,58.0,-100.00,WSW,250,26.0,42.0,90,-99.99,,,-99.99,,2013-01-17 22:23:00,
2013-01-17 17:33:00,60.0,58.0,-100.00,West,260,19.0,39.0,91,-99.99,,,-99.99,,2013-01-17 22:33:00,
2013-01-17 17:43:00,58.0,56.0,-100.00,West,270,25.0,37.0,92,-99.99,,,-99.99,,2013-01-17 22:43:00,
2013-01-17 17:52:00,57.0,55.0,-100.00,WSW,255,24.0,42.0,93,-99.99,,,-99.99,,2013-01-17 22:52:00,
2013-01-17 18:03:00,56.0,54.0,-100.00,West,260,23.0,39.0,92,-99.99,,,-99.99,,2013-01-17 23:03:00,
2013-01-17 18:12:00,56.0,53.0,-100.00,West,260,19.0,32.0,92,-99.99,,,-99.99,,2013-01-17 23:12:00,
2013-01-17 18:23:00,56.0,53.0,-100.00,WSW,255,24.0,36.0,92,-99.99,,,-99.99,,2013-01-17 23:23:00,
2013-01-17 18:33:00,56.0,53.0,-100.00,WSW,255,24.0,36.0,92,-99.99,,,-99.99,,2013-01-17 23:33:00,
2013-01-17 18:43:00,54.0,50.0,-100.00,WSW,245,19.0,39.0,84,-99.99,,,-99.99,,2013-01-17 23:43:00,
2013-01-17 18:53:00,54.0,47.0,-100.00,WSW,255,26.0,39.0,77,-99.99,,,-99.99,,2013-01-17 23:53:00,
2013-01-17 19:03:00,54.0,47.0,-100.00,WSW,250,24.0,34.0,77,-99.99,,,-99.99,,2013-01-18 00:03:00,
2013-01-17 19:12:00,53.0,46.0,-100.00,WSW,255,24.0,34.0,76,-99.99,,,-99.99,,2013-01-18 00:12:00,
2013-01-17 19:23:00,53.0,46.0,-100.00,WSW,255,19.0,29.0,77,-99.99,,,-99.99,,2013-01-18 00:23:00,
2013-01-17 19:33:00,53.0,46.0,-100.00,WSW,255,19.0,29.0,77,-99.99,,,-99.99,,2013-01-18 00:33:00,
2013-01-17 19:43:00,52.0,45.0,-100.00,West,265,14.0,29.0,75,-99.99,,,-99.99,,2013-01-18 00:43:00,
2013-01-17 19:52:00,52.0,44.0,-100.00,West,265,15.0,27.0,74,-99.99,,,-99.99,,2013-01-18 00:52:00,
2013-01-17 20:03:00,52.0,44.0,-100.00,WSW,255,19.0,27.0,74,-99.99,,,-99.99,,2013-01-18 01:03:00,
2013-01-17 20:13:00,51.0,44.0,-100.00,West,260,14.0,24.0,76,-99.99,,,-99.99,,2013-01-18 01:13:00,
2013-01-17 20:23:00,51.0,44.0,-100.00,West,265,16.0,26.0,77,-99.99,,,-99.99,,2013-01-18 01:23:00,
2013-01-17 20:33:00,51.0,44.0,-100.00,West,265,10.0,27.0,78,-99.99,,,-99.99,,2013-01-18 01:33:00,
2013-01-17 20:43:00,51.0,44.0,-100.00,West,270,9.0,19.0,79,-99.99,,,-99.99,,2013-01-18 01:43:00,
2013-01-17 20:52:00,51.0,44.0,-100.00,West,270,14.0,23.0,79,-99.99,,,-99.99,,2013-01-18 01:52:00,
2013-01-17 21:03:00,51.0,45.0,-100.00,West,270,11.0,23.0,80,-99.99,,,-99.99,,2013-01-18 02:03:00,
2013-01-17 21:12:00,51.0,45.0,-100.00,West,275,7.0,18.0,80,-99.99,,,-99.99,,2013-01-18 02:12:00,
2013-01-17 21:23:00,50.0,44.0,-100.00,West,270,7.0,24.0,80,-99.99,,,-99.99,,2013-01-18 02:23:00,
2013-01-17 21:33:00,50.0,44.0,-100.00,West,270,13.0,27.0,78,-99.99,,,-99.99,,2013-01-18 02:33:00,
2013-01-17 21:43:00,50.0,42.0,-100.00,West,270,19.0,31.0,75,-99.99,,,-99.99,,2013-01-18 02:43:00,
2013-01-17 21:52:00,50.0,42.0,-100.00,West,270,14.0,31.0,75,-99.99,,,-99.99,,2013-01-18 02:52:00,
2013-01-17 22:03:00,49.0,41.0,-100.00,West,270,14.0,27.0,74,-99.99,,,-99.99,,2013-01-18 03:03:00,
2013-01-17 22:13:00,49.0,39.0,-100.00,West,280,19.0,32.0,69,-99.99,,,-99.99,,2013-01-18 03:13:00,
2013-01-17 22:23:00,48.0,38.0,-100.00,West,270,17.0,31.0,68,-99.99,,,-99.99,,2013-01-18 03:23:00,
2013-01-17 22:33:00,48.0,38.0,-100.00,West,270,17.0,29.0,66,-99.99,,,-99.99,,2013-01-18 03:33:00,
2013-01-17 22:43:00,48.0,37.0,-100.00,West,275,10.0,25.0,65,-99.99,,,-99.99,,2013-01-18 03:43:00,
2013-01-17 22:52:00,48.0,37.0,-100.00,West,270,14.0,26.0,65,-99.99,,,-99.99,,2013-01-18 03:52:00,
2013-01-17 23:02:00,48.0,37.0,-100.00,West,275,15.0,23.0,65,-99.99,,,-99.99,,2013-01-18 04:02:00,
2013-01-17 23:12:00,47.0,37.0,-100.00,WNW,285,8.0,24.0,67,-99.99,,,-99.99,,2013-01-18 04:12:00,
2013-01-17 23:22:00,47.0,37.0,-100.00,WNW,300,13.0,23.0,68,-99.99,,,-99.99,,2013-01-18 04:22:00,
2013-01-17 23:33:00,47.0,37.0,-100.00,WNW,290,13.0,28.0,69,-99.99,,,-99.99,,2013-01-18 04:33:00,
2013-01-17 23:42:00,47.0,37.0,-100.00,WNW,300,21.0,29.0,68,-99.99,,,-99.99,,2013-01-18 04:42:00,
2013-01-17 23:53:00,47.0,36.0,-100.00,NW,305,16.0,30.0,67,-99.99,,,-99.99,,2013-01-18 04:53:00,